Flight Track Log - Related Links

Times and Time Zones

All times are in EDT time to prevent confusion due to time zone crossing. See the EJA324 flight status page for this flight to view local times or setup timezone preferences in your user account.

Time Position Orientation Groundspeed Altitude Reporting Facility
EDT Latitude Longitude Course Direction KTS MPH feet Rate Location/Type
Mon 01:25:39 PM 27.1703 -80.1906 136° Southeast 171 197 2,500  Level Miami Center
Mon 01:26:39 PM 27.1356 -80.1522 136° Southeast 170 196 4,700 1,250 Climbing Miami Center
Mon 01:27:39 PM 27.1278 -80.2222 263° West 149 171 5,000 200 Climbing Miami Center
Mon 01:28:39 PM 27.1617 -80.2861 301° West 224 258 5,100 1,850 Climbing Miami Center
Mon 01:29:39 PM 27.1828 -80.3661 287° West 256 295 8,700 1,950 Climbing Miami Center
Mon 01:30:39 PM 27.2097 -80.4581 288° West 278 320 9,000 150 Climbing Miami Center
Mon 01:31:39 PM 27.2603 -80.5203 312° West 279 321 9,000  Level Miami Center
Mon 01:32:39 PM 27.3258 -80.5692 326° Northwest 279 321 9,000  Level Miami Center
Mon 01:33:39 PM 27.3853 -80.6131 327° Northwest 279 321 9,000  Level Miami Center
Mon 01:34:39 PM 27.4019 -80.6933 283° West 254 292 9,000  Level Miami Center
Mon 01:35:39 PM 27.4017 -80.7797 270° West 259 298 9,000 -50 Level Miami Center
Mon 01:36:39 PM 27.4014 -80.8686 270° West 275 316 8,900 -50 Descending Miami Center
Mon 01:37:39 PM 27.4053 -80.9531 273° West 280 322 8,900  Level Miami Center
Mon 01:38:39 PM 27.4281 -81.0381 287° West 280 322 8,900  Level Miami Center
Mon 01:39:39 PM 27.5050 -81.0456 355° North 227 261 8,900  Level Miami Center
Mon 01:40:39 PM 27.5908 -81.0369 North 246 283 8,900 -124 Level Miami Center
Mon 01:42:52 PM 27.7667 -81.0667 351° North 279 321 8,500 -187 Descending Orlando TRACON
Mon 01:43:52 PM 27.8333 -81.0833 348° North 278 320 8,300 -200 Descending Orlando TRACON
Mon 01:44:52 PM 27.9167 -81.1000 350° North 280 322 8,100 -150 Descending Orlando TRACON
Mon 01:45:52 PM 27.9833 -81.1167 348° North 278 320 8,000 -136 Descending Orlando TRACON
Mon 01:47:04 PM 28.0667 -81.1667 332° Northwest 239 275 7,800 -818 Descending Orlando TRACON
Mon 01:48:04 PM 28.1167 -81.2000 330° Northwest 236 272 6,200 -1,700 Descending Orlando TRACON
Mon 01:49:04 PM 28.1833 -81.2333 336° Northwest 226 260 4,400 -1,750 Descending Orlando TRACON
Mon 01:50:04 PM 28.2333 -81.2667 330° Northwest 208 239 2,700 -1,333 Descending Orlando TRACON
Mon 01:51:10 PM 28.2833 -81.3167 319° Northwest 206 237 1,600 -524 Descending Orlando TRACON
Mon 01:52:10 PM 28.3333 -81.3167 360° North 193 222 1,600 -286 Level Orlando TRACON
Mon 01:53:16 PM 28.3667 -81.3167 360° North 116 133 1,000 -611 Descending Orlando TRACON
Mon 01:53:58 PM 28.4000 -81.3333 336° Northwest 101 116 500 -714 Descending Orlando TRACON
Mon 01:55:00 PM 28.4294 -81.3090 41° Northeast  Level Estimated
Mon 02:02:00 PM 28.4294 -81.3090 204° Southwest  Level Estimated

Login

Don't have an account? Register now (free) for customized features, flight alerts, and more!